When you browse on this site, cookies collect data to enhance your experience and personalize the content and advertising you see.
Visit our Privacy Policy to learn more. By continuing to use the site, you agree to this use of cookies and data.
  • In Portugal
  • List of Countries
  • For 7 days
  • Water Temperature
  • Satellite Maps
  • Weather Map
  • Weather Widgets
  • user-avatar
    Login

    Hourly Weather Plociczno

    Today, 17 July, Wednesday

    Time Temperature Precipitation Wind Pressure Humidity
    00:00 +10°C° 0 mm 3 mps 739 mmHg 95%
    01:00 +10°C° 0 mm 3 mps 739 mmHg 95%
    02:00 +10°C° 0 mm 3 mps 739 mmHg 95%
    03:00 +10°C° 0.6 mm 2 mps 739 mmHg 96%
    04:00 +10°C° 0.6 mm 2 mps 739 mmHg 96%
    05:00 +10°C° 0.6 mm 2 mps 739 mmHg 97%
    06:00 +12°C° 0.2 mm 1 mps 739 mmHg 95%
    07:00 +12°C° 0.2 mm 1 mps 739 mmHg 94%
    08:00 +13°C° 0.2 mm 1 mps 739 mmHg 93%
    09:00 +14°C° 0.2 mm 1 mps 739 mmHg 88%
    10:00 +15°C° 0.2 mm 2 mps 739 mmHg 84%
    11:00 +16°C° 0.2 mm 2 mps 740 mmHg 79%
    12:00 +17°C° 0.4 mm 3 mps 740 mmHg 76%
    13:00 +18°C° 0.4 mm 4 mps 740 mmHg 72%
    14:00 +19°C° 0.4 mm 5 mps 740 mmHg 68%
    15:00 +17°C° 0.3 mm 5 mps 740 mmHg 72%
    16:00 +17°C° 0.3 mm 5 mps 740 mmHg 76%
    17:00 +16°C° 0.3 mm 6 mps 740 mmHg 80%
    18:00 +16°C° 0.4 mm 5 mps 740 mmHg 84%
    19:00 +15°C° 0.4 mm 5 mps 740 mmHg 88%
    20:00 +14°C° 0.4 mm 5 mps 740 mmHg 92%
    21:00 +14°C° 0.1 mm 5 mps 740 mmHg 94%
    22:00 +13°C° 0.1 mm 4 mps 741 mmHg 95%
    23:00 +13°C° 0.1 mm 4 mps 741 mmHg 97%

    Tomorrow, 18 July, Thursday

    Time Temperature Precipitation Wind Pressure Humidity
    00:00 +12°C° 0 mm 4 mps 741 mmHg 97%
    01:00 +12°C° 0 mm 4 mps 741 mmHg 97%
    02:00 +12°C° 0 mm 4 mps 741 mmHg 98%
    03:00 +12°C° 0 mm 4 mps 741 mmHg 98%
    04:00 +12°C° 0 mm 4 mps 742 mmHg 97%
    05:00 +12°C° 0 mm 4 mps 742 mmHg 97%
    06:00 +13°C° 0 mm 4 mps 742 mmHg 95%
    07:00 +14°C° 0 mm 4 mps 742 mmHg 92%
    08:00 +15°C° 0 mm 4 mps 742 mmHg 89%
    09:00 +17°C° 0 mm 4 mps 742 mmHg 81%
    10:00 +19°C° 0 mm 4 mps 742 mmHg 74%
    11:00 +21°C° 0 mm 5 mps 742 mmHg 66%
    12:00 +21°C° 0.1 mm 5 mps 742 mmHg 65%
    13:00 +22°C° 0.1 mm 5 mps 742 mmHg 64%
    14:00 +22°C° 0.1 mm 5 mps 742 mmHg 63%
    15:00 +22°C° 0.2 mm 4 mps 742 mmHg 64%
    16:00 +22°C° 0.2 mm 4 mps 742 mmHg 66%
    17:00 +21°C° 0.2 mm 4 mps 742 mmHg 67%
    18:00 +20°C° 0.3 mm 4 mps 743 mmHg 74%
    19:00 +19°C° 0.3 mm 3 mps 743 mmHg 81%
    20:00 +17°C° 0.3 mm 3 mps 743 mmHg 88%
    21:00 +16°C° 0 mm 3 mps 743 mmHg 90%
    22:00 +14°C° 0 mm 3 mps 743 mmHg 92%
    23:00 +14°C° 0 mm 2 mps 744 mmHg 94%

    Day after tomorrow, 19 July, Friday

    Time Temperature Precipitation Wind Pressure Humidity
    00:00 +13°C° 0 mm 2 mps 744 mmHg 94%
    01:00 +12°C° 0 mm 2 mps 744 mmHg 94%
    02:00 +12°C° 0 mm 2 mps 744 mmHg 95%
    03:00 +12°C° 0 mm 2 mps 744 mmHg 94%
    04:00 +12°C° 0 mm 2 mps 744 mmHg 94%
    05:00 +10°C° 0 mm 2 mps 744 mmHg 94%
    06:00 +13°C° 0 mm 2 mps 744 mmHg 89%
    07:00 +15°C° 0 mm 2 mps 744 mmHg 85%
    08:00 +16°C° 0 mm 2 mps 745 mmHg 80%
    09:00 +18°C° 0 mm 2 mps 745 mmHg 73%
    10:00 +19°C° 0 mm 2 mps 745 mmHg 65%
    11:00 +21°C° 0 mm 2 mps 745 mmHg 57%
    12:00 +21°C° 0 mm 2 mps 745 mmHg 56%
    13:00 +23°C° 0 mm 2 mps 744 mmHg 54%
    14:00 +23°C° 0 mm 2 mps 744 mmHg 52%
    15:00 +23°C° 0 mm 2 mps 744 mmHg 54%
    16:00 +23°C° 0 mm 2 mps 744 mmHg 56%
    17:00 +23°C° 0 mm 2 mps 744 mmHg 58%
    18:00 +21°C° 0 mm 2 mps 744 mmHg 66%
    19:00 +19°C° 0 mm 2 mps 744 mmHg 74%
    20:00 +18°C° 0 mm 2 mps 744 mmHg 81%
    21:00 +18°C° 0 mm 1 mps 745 mmHg 84%
    22:00 +15°C° 0 mm 1 mps 745 mmHg 86%
    23:00 +14°C° 0 mm 1 mps 745 mmHg 88%

    20 July, Saturday

    Time Temperature Precipitation Wind Pressure Humidity
    00:00 +13°C° 0 mm 1 mps 745 mmHg 87%
    01:00 +12°C° 0 mm 0 mps 745 mmHg 87%
    02:00 +11°C° 0 mm 0 mps 745 mmHg 86%
    03:00 +11°C° 0 mm 0 mps 746 mmHg 87%
    04:00 +11°C° 0 mm 0 mps 746 mmHg 87%
    05:00 +11°C° 0 mm 0 mps 746 mmHg 87%
    06:00 +13°C° 0 mm 0 mps 746 mmHg 83%
    07:00 +18°C° 0 mm 1 mps 746 mmHg 78%
    08:00 +20°C° 0 mm 1 mps 747 mmHg 73%
    09:00 +21°C° 0 mm 1 mps 747 mmHg 69%
    10:00 +22°C° 0 mm 1 mps 747 mmHg 64%
    11:00 +24°C° 0 mm 1 mps 747 mmHg 60%
    12:00 +24°C° 0.1 mm 1 mps 747 mmHg 59%
    13:00 +25°C° 0.1 mm 1 mps 747 mmHg 57%
    14:00 +25°C° 0.1 mm 1 mps 747 mmHg 56%
    15:00 +25°C° 0.2 mm 1 mps 747 mmHg 58%
    16:00 +25°C° 0.2 mm 1 mps 747 mmHg 60%
    17:00 +25°C° 0.2 mm 1 mps 747 mmHg 62%
    18:00 +23°C° 0.3 mm 1 mps 747 mmHg 69%
    19:00 +22°C° 0.3 mm 1 mps 747 mmHg 76%
    20:00 +20°C° 0.3 mm 1 mps 747 mmHg 83%
    21:00 +19°C° 0 mm 1 mps 748 mmHg 85%
    22:00 +18°C° 0 mm 1 mps 748 mmHg 86%
    23:00 +16°C° 0 mm 1 mps 748 mmHg 88%

    21 July, Sunday

    Time Temperature Precipitation Wind Pressure Humidity
    00:00 +16°C° 0 mm 1 mps 748 mmHg 89%
    01:00 +16°C° 0 mm 1 mps 748 mmHg 90%
    02:00 +15°C° 0 mm 1 mps 748 mmHg 90%
    03:00 +15°C° 0 mm 1 mps 748 mmHg 90%
    04:00 +15°C° 0 mm 1 mps 748 mmHg 90%
    05:00 +15°C° 0 mm 1 mps 748 mmHg 91%
    06:00 +18°C° 0 mm 1 mps 749 mmHg 86%
    07:00 +19°C° 0 mm 1 mps 749 mmHg 81%
    08:00 +21°C° 0 mm 1 mps 749 mmHg 76%
    09:00 +22°C° 0 mm 1 mps 749 mmHg 71%
    10:00 +24°C° 0 mm 2 mps 749 mmHg 66%
    11:00 +25°C° 0 mm 2 mps 749 mmHg 60%
    12:00 +26°C° 0 mm 2 mps 749 mmHg 58%
    13:00 +26°C° 0 mm 2 mps 749 mmHg 56%
    14:00 +27°C° 0 mm 2 mps 749 mmHg 54%
    15:00 +27°C° 0 mm 2 mps 749 mmHg 55%
    16:00 +27°C° 0 mm 2 mps 748 mmHg 56%
    17:00 +27°C° 0 mm 2 mps 748 mmHg 58%
    18:00 +25°C° 0 mm 2 mps 748 mmHg 63%
    19:00 +24°C° 0 mm 2 mps 748 mmHg 69%
    20:00 +21°C° 0 mm 2 mps 748 mmHg 75%
    21:00 +21°C° 0.1 mm 2 mps 748 mmHg 77%
    22:00 +20°C° 0.1 mm 2 mps 748 mmHg 78%
    23:00 +19°C° 0.1 mm 2 mps 748 mmHg 79%

    22 July, Monday

    Time Temperature Precipitation Wind Pressure Humidity
    00:00 +19°C° 0.7 mm 2 mps 748 mmHg 84%
    01:00 +19°C° 0.7 mm 1 mps 748 mmHg 88%
    02:00 +19°C° 0.7 mm 1 mps 748 mmHg 92%
    03:00 +19°C° 1.4 mm 1 mps 747 mmHg 94%
    04:00 +18°C° 1.4 mm 2 mps 747 mmHg 96%
    05:00 +17°C° 1.4 mm 2 mps 747 mmHg 98%
    06:00 +17°C° 3 mm 2 mps 747 mmHg 98%
    07:00 +18°C° 3 mm 3 mps 747 mmHg 98%
    08:00 +18°C° 3 mm 4 mps 747 mmHg 98%
    09:00 +18°C° 3.1 mm 4 mps 747 mmHg 98%
    10:00 +17°C° 3.1 mm 4 mps 747 mmHg 97%
    11:00 +17°C° 3.1 mm 4 mps 747 mmHg 97%
    12:00 +17°C° 0.7 mm 4 mps 747 mmHg 97%
    13:00 +18°C° 0.7 mm 4 mps 747 mmHg 96%
    14:00 +18°C° 0.7 mm 4 mps 747 mmHg 96%
    15:00 +18°C° 0.1 mm 4 mps 747 mmHg 94%
    16:00 +18°C° 0.1 mm 4 mps 746 mmHg 93%
    17:00 +19°C° 0.1 mm 4 mps 746 mmHg 92%
    18:00 +18°C° 0 mm 3 mps 746 mmHg 92%
    19:00 +18°C° 0 mm 3 mps 746 mmHg 92%
    20:00 +18°C° 0 mm 2 mps 746 mmHg 93%
    21:00 +17°C° 0 mm 2 mps 746 mmHg 94%
    22:00 +16°C° 0 mm 2 mps 746 mmHg 95%
    23:00 +15°C° 0 mm 2 mps 746 mmHg 96%
    Show more